| time (UTC) | temp F | wind direction | speed MPH | gust MPH | rain 1hr in | rain 24hr in | rain mn in | humidity % | barometer mb |
| 20260902060048 | 54 | 296 | 0.0 | 0.0 | 0.00 | 0.00 | 0.00 | 54 | 1013.7 |
| 20260902054547 | 55 | 296 | 0.0 | 0.0 | 0.00 | 0.00 | 0.00 | 60 | 1013.6 |
| 20260902053047 | 56 | 296 | 0.0 | 0.0 | 0.00 | 0.00 | 0.00 | 62 | 1013.7 |
| 20260902051558 | 56 | 296 | 0.0 | 0.0 | 0.00 | 0.00 | 0.00 | 61 | 1013.8 |
| 20260902050047 | 57 | 296 | 0.0 | 0.0 | 0.00 | 0.00 | 0.00 | 60 | 1013.9 |
| 20260902044604 | 58 | 296 | 0.0 | 0.0 | 0.00 | 0.00 | 0.00 | 56 | 1013.8 |
| 20260902043048 | 59 | 296 | 0.0 | 0.0 | 0.00 | 0.00 | 0.00 | 55 | 1013.6 |
| 20260902041547 | 60 | 296 | 0.0 | 0.0 | 0.00 | 0.00 | 0.00 | 55 | 1013.3 |
| 20260902040044 | 61 | 296 | 0.0 | 0.0 | 0.00 | 0.00 | 0.00 | 55 | 1013.3 |
| 20260902034543 | 62 | 296 | 0.0 | 0.0 | 0.00 | 0.00 | 0.00 | 53 | 1013.1 |
| 20260902033043 | 64 | 296 | 0.0 | 0.0 | 0.00 | 0.00 | 0.00 | 52 | 1012.8 |
| 20260902031555 | 65 | 296 | 0.0 | 0.0 | 0.00 | 0.00 | 0.00 | 50 | 1012.6 |
| 20260902030041 | 66 | 296 | 0.0 | 0.0 | 0.00 | 0.00 | 0.00 | 49 | 1012.3 |
| 20260902024550 | 67 | 296 | 0.0 | 0.0 | 0.00 | 0.00 | 0.00 | 48 | 1012.2 |
| 20260902023041 | 68 | 296 | 0.0 | 0.0 | 0.00 | 0.00 | 0.00 | 48 | 1012.2 |
| 20260902021544 | 69 | 296 | 0.0 | 0.0 | 0.00 | 0.00 | 0.00 | 47 | 1012.1 |
| 20260902020042 | 70 | 296 | 0.0 | 0.0 | 0.00 | 0.00 | 0.00 | 47 | 1012.1 |
| 20260902014541 | 71 | 234 | 0.0 | 4.0 | 0.00 | 0.00 | 0.00 | 46 | 1012.2 |
| 20260902013040 | 72 | 282 | 0.0 | 4.0 | 0.00 | 0.00 | 0.00 | 43 | 1012.1 |
| 20260902011538 | 73 | 207 | 0.0 | 9.0 | 0.00 | 0.00 | 0.00 | 42 | 1012.2 |
| 20260902010041 | 74 | 305 | 0.0 | 5.0 | 0.00 | 0.00 | 0.00 | 41 | 1012.4 |
| 20260902004537 | 75 | 316 | 0.0 | 12.0 | 0.00 | 0.00 | 0.00 | 42 | 1012.5 |
| 20260902003037 | 76 | 238 | 0.0 | 1.0 | 0.00 | 0.00 | 0.00 | 42 | 1012.4 |
| 20260902001536 | 76 | 227 | 0.0 | 13.0 | 0.00 | 0.00 | 0.00 | 40 | 1012.4 |
| 20260902000034 | 77 | 299 | 2.0 | 9.0 | 0.00 | 0.00 | 0.00 | 38 | 1012.7 |
| 20260901234534 | 78 | 217 | 0.0 | 10.0 | 0.00 | 0.00 | 0.00 | 36 | 1012.7 |
| 20260901233032 | 79 | 281 | 0.0 | 8.0 | 0.00 | 0.00 | 0.00 | 34 | 1012.8 |
| 20260901231535 | 79 | 286 | 0.0 | 10.0 | 0.00 | 0.00 | 0.00 | 35 | 1012.7 |
| 20260901230030 | 80 | 259 | 0.0 | 11.0 | 0.00 | 0.00 | 0.00 | 35 | 1012.8 |
| 20260901224528 | 80 | 324 | 2.0 | 10.0 | 0.00 | 0.00 | 0.00 | 35 | 1012.9 |
| 20260901223027 | 81 | 308 | 0.0 | 0.0 | 0.00 | 0.00 | 0.00 | 33 | 1012.9 |
| 20260901221525 | 82 | 298 | 0.0 | 12.0 | 0.00 | 0.00 | 0.00 | 30 | 1012.8 |
| 20260901220023 | 83 | 304 | 0.0 | 15.0 | 0.00 | 0.00 | 0.00 | 27 | 1012.8 |
| 20260901214522 | 84 | 300 | 1.0 | 11.0 | 0.00 | 0.00 | 0.00 | 26 | 1013.1 |
| 20260901213026 | 85 | 314 | 2.0 | 14.0 | 0.00 | 0.00 | 0.00 | 26 | 1013.2 |
| 20260901211518 | 85 | 267 | 1.0 | 14.0 | 0.00 | 0.00 | 0.00 | 26 | 1013.2 |
| 20260901210016 | 85 | 258 | 1.0 | 10.0 | 0.00 | 0.00 | 0.00 | 27 | 1013.3 |
| 20260901204517 | 85 | 304 | 0.0 | 14.0 | 0.00 | 0.00 | 0.00 | 27 | 1013.4 |
| 20260901203012 | 85 | 309 | 0.0 | 11.0 | 0.00 | 0.00 | 0.00 | 25 | 1013.5 |
| 20260901201511 | 85 | 303 | 1.0 | 12.0 | 0.00 | 0.00 | 0.00 | 27 | 1013.7 |
| 20260901200015 | 85 | 306 | 1.0 | 11.0 | 0.00 | 0.00 | 0.00 | 26 | 1013.7 |
| 20260901194508 | 85 | 307 | 0.0 | 14.0 | 0.00 | 0.00 | 0.00 | 26 | 1013.8 |
| 20260901193004 | 85 | 323 | 1.0 | 12.0 | 0.00 | 0.00 | 0.00 | 26 | 1013.8 |
| 20260901191600 | 84 | 312 | 0.0 | 13.0 | 0.00 | 0.00 | 0.00 | 24 | 1013.9 |
| 20260901190056 | 83 | 334 | 2.0 | 11.0 | 0.00 | 0.00 | 0.00 | 25 | 1014.0 |
| 20260901184600 | 83 | 277 | 2.0 | 13.0 | 0.00 | 0.00 | 0.00 | 26 | 1014.2 |
| 20260901183115 | 83 | 302 | 0.0 | 13.0 | 0.00 | 0.00 | 0.00 | 23 | 1014.3 |
| 20260901181551 | 83 | 296 | 0.0 | 11.0 | 0.00 | 0.00 | 0.00 | 21 | 1014.2 |
| 20260901180049 | 83 | 309 | 0.0 | 9.0 | 0.00 | 0.00 | 0.00 | 20 | 1014.1 |
| 20260901174547 | 83 | 311 | 1.0 | 11.0 | 0.00 | 0.00 | 0.00 | 19 | 1014.1 |
| 20260901173055 | 82 | 320 | 0.0 | 11.0 | 0.00 | 0.00 | 0.00 | 19 | 1014.2 |
| 20260901171552 | 81 | 315 | 0.0 | 4.0 | 0.00 | 0.00 | 0.00 | 17 | 1013.9 |
| 20260901170051 | 80 | 252 | 0.0 | 10.0 | 0.00 | 0.00 | 0.00 | 17 | 1013.9 |
| 20260901164535 | 79 | 314 | 0.0 | 0.0 | 0.00 | 0.00 | 0.00 | 20 | 1013.8 |
| 20260901163041 | 77 | 283 | 0.0 | 0.0 | 0.00 | 0.00 | 0.00 | 21 | 1013.6 |
| 20260901161529 | 75 | 244 | 0.0 | 0.0 | 0.00 | 0.00 | 0.00 | 20 | 1013.8 |
| 20260901160022 | 72 | 317 | 0.0 | 0.0 | 0.00 | 0.00 | 0.00 | 24 | 1013.1 |
| 20260901154518 | 67 | 301 | 0.0 | 0.0 | 0.00 | 0.00 | 0.00 | 25 | 1013.2 |
| 20260901153013 | 63 | 98 | 0.0 | 0.0 | 0.00 | 0.00 | 0.00 | 31 | 1013.2 |
| 20260901151512 | 60 | 93 | 0.0 | 0.0 | 0.00 | 0.00 | 0.00 | 34 | 1013.2 |
| 20260901150010 | 59 | 30 | 0.0 | 0.0 | 0.00 | 0.00 | 0.00 | 37 | 1013.2 |
| 20260901144510 | 58 | 30 | 0.0 | 0.0 | 0.00 | 0.00 | 0.00 | 39 | 1013.1 |
| 20260901143012 | 56 | 30 | 0.0 | 0.0 | 0.00 | 0.00 | 0.00 | 39 | 1013.2 |
| 20260901141507 | 55 | 30 | 0.0 | 0.0 | 0.00 | 0.00 | 0.00 | 39 | 1013.0 |
| 20260901140010 | 54 | 30 | 0.0 | 0.0 | 0.00 | 0.00 | 0.00 | 40 | 1012.9 |
| 20260901134509 | 54 | 30 | 0.0 | 0.0 | 0.00 | 0.00 | 0.00 | 41 | 1012.9 |
| 20260901133004 | 54 | 30 | 0.0 | 0.0 | 0.00 | 0.00 | 0.00 | 40 | 1012.9 |
| 20260901131502 | 54 | 30 | 0.0 | 0.0 | 0.00 | 0.00 | 0.00 | 41 | 1012.6 |
| 20260901130002 | 54 | 30 | 0.0 | 0.0 | 0.00 | 0.00 | 0.00 | 40 | 1012.7 |
| 20260901124601 | 54 | 30 | 0.0 | 0.0 | 0.00 | 0.00 | 0.00 | 41 | 1012.6 |
| 20260901123059 | 54 | 30 | 0.0 | 0.0 | 0.00 | 0.00 | 0.00 | 42 | 1012.5 |
| 20260901121603 | 54 | 29 | 0.0 | 0.0 | 0.00 | 0.00 | 0.00 | 44 | 1012.4 |
| 20260901120105 | 54 | 30 | 0.0 | 0.0 | 0.00 | 0.00 | 0.00 | 47 | 1012.4 |
| 20260901114557 | 54 | 30 | 0.0 | 0.0 | 0.00 | 0.00 | 0.00 | 48 | 1012.2 |
| 20260901113052 | 54 | 30 | 0.0 | 0.0 | 0.00 | 0.00 | 0.00 | 49 | 1012.1 |
| 20260901111557 | 54 | 29 | 0.0 | 0.0 | 0.00 | 0.00 | 0.00 | 49 | 1011.9 |
| 20260901110052 | 54 | 30 | 0.0 | 0.0 | 0.00 | 0.00 | 0.00 | 50 | 1011.9 |
| 20260901104547 | 54 | 29 | 0.0 | 0.0 | 0.00 | 0.00 | 0.00 | 52 | 1011.8 |
| 20260901103054 | 54 | 30 | 0.0 | 0.0 | 0.00 | 0.00 | 0.00 | 51 | 1011.9 |
| 20260901101547 | 55 | 30 | 0.0 | 0.0 | 0.00 | 0.00 | 0.00 | 52 | 1011.9 |
| 20260901100049 | 55 | 30 | 0.0 | 0.0 | 0.00 | 0.00 | 0.00 | 52 | 1012.0 |
| 20260901094540 | 55 | 30 | 0.0 | 0.0 | 0.00 | 0.00 | 0.00 | 52 | 1012.2 |
| 20260901093038 | 55 | 30 | 0.0 | 0.0 | 0.00 | 0.00 | 0.00 | 53 | 1012.1 |
| 20260901091536 | 56 | 30 | 0.0 | 0.0 | 0.00 | 0.00 | 0.00 | 50 | 1012.2 |
| 20260901090033 | 56 | 30 | 0.0 | 0.0 | 0.00 | 0.00 | 0.00 | 49 | 1012.2 |
| 20260901084532 | 56 | 30 | 0.0 | 0.0 | 0.00 | 0.00 | 0.00 | 48 | 1012.2 |
| 20260901083029 | 57 | 30 | 0.0 | 0.0 | 0.00 | 0.00 | 0.00 | 47 | 1012.2 |
| 20260901081526 | 57 | 30 | 0.0 | 0.0 | 0.00 | 0.00 | 0.00 | 46 | 1012.2 |
| 20260901080025 | 57 | 30 | 0.0 | 0.0 | 0.00 | 0.00 | 0.00 | 46 | 1012.4 |
| 20260901074523 | 58 | 30 | 0.0 | 0.0 | 0.00 | 0.00 | 0.00 | 47 | 1012.3 |
| 20260901073019 | 58 | 30 | 0.0 | 0.0 | 0.00 | 0.00 | 0.00 | 51 | 1012.2 |
| 20260901071516 | 58 | 30 | 0.0 | 0.0 | 0.00 | 0.00 | 0.00 | 60 | 1012.4 |
| 20260901070015 | 63 | 11 | 0.0 | 0.0 | 0.00 | 0.00 | 0.00 | 54 | 1012.4 |
| 20260901064515 | 62 | 80 | 0.0 | 0.0 | 0.00 | 0.00 | 0.00 | 59 | 1012.2 |
| 20260901063019 | 61 | 78 | 0.0 | 0.0 | 0.00 | 0.00 | 0.00 | 62 | 1012.4 |
| 20260901061511 | 62 | 71 | 0.0 | 1.0 | 0.00 | 0.00 | 0.00 | 61 | 1012.4 |